Date String (YYYY-MM-DD hh:mm:ss) UTC,Instrument flags,Ambient pressure (hPa),Sample flow (lpm),Bypass flow (lpm),Sample temperature (°C),Ambient temperature (°C),ASC tube jacket temperature (°C),LED temperature (°C),Box temperature (°C),Sample RH (%),Span deviation,Mass concentration (μg/m³),Mass concentration (μg/m³),Mass concentration (μg/m³)
DateTimeUTC,F1_M11,P_M11,Q1_M11,Q2_M11,T1_M11,T2_M11,T3_M11,T4_M11,T5_M11,U1_M11,ZSPAN_M11,X0_M11,X2_M11,X1_M11
2021-09-24 08:00:00,,0829.8,5.01,0.00,30.2,29.3,00.0,39.3,31.9,11.7,0002.1,0018.07,0011.08,0010.18
2021-09-24 08:01:00,,0829.8,4.99,0.00,30.2,29.3,00.0,39.3,31.9,11.7,0002.2,0017.96,0011.02,0010.14
2021-09-24 08:02:00,,0829.8,5.00,0.00,30.2,29.3,00.0,39.3,32.0,11.7,0002.4,0017.74,0010.94,0010.08
2021-09-24 08:03:00,,0829.8,5.01,0.00,30.2,29.3,00.0,39.3,32.0,11.7,0002.4,0017.24,0010.90,0010.04
2021-09-24 08:04:00,,0829.8,4.99,0.00,30.2,29.3,00.0,39.3,32.0,11.6,0002.3,0017.17,0010.84,0010.00
2021-09-24 08:05:00,,0829.8,4.99,0.00,30.2,29.3,00.0,39.3,32.0,11.7,0002.3,0017.04,0010.89,0010.03
2021-09-24 08:06:00,,0829.8,5.01,0.00,30.2,29.3,00.0,39.3,32.0,11.7,0002.2,0017.12,0010.92,0010.09
2021-09-24 08:07:00,,0829.8,4.99,0.00,30.2,29.3,00.0,39.3,32.0,11.7,0002.4,0017.09,0011.03,0010.19
2021-09-24 08:08:00,,0829.7,5.00,0.00,30.2,29.3,00.0,39.4,32.0,11.7,0002.5,0016.98,0011.09,0010.26
2021-09-24 08:09:00,,0829.7,5.01,0.00,30.3,29.3,00.0,39.4,32.0,11.7,0002.5,0016.88,0011.17,0010.34
2021-09-24 08:10:00,,0829.7,4.99,0.00,30.3,29.3,00.0,39.4,32.0,11.7,0002.5,0017.47,0011.31,0010.45
2021-09-24 08:11:00,,0829.8,5.00,0.00,30.3,29.3,00.0,39.4,32.0,11.8,0002.6,0017.79,0011.35,0010.49
2021-09-24 08:12:00,,0829.8,5.01,0.00,30.3,29.3,00.0,39.4,32.0,11.7,0002.5,0017.77,0011.37,0010.53
2021-09-24 08:13:00,,0829.8,5.00,0.00,30.3,29.3,00.0,39.4,32.0,11.7,0002.4,0018.91,0011.45,0010.58
2021-09-24 08:14:00,,0829.9,5.01,0.00,30.3,29.3,00.0,39.4,32.0,11.8,0002.4,0020.33,0011.48,0010.62
2021-09-24 08:15:00,,0829.9,4.99,0.00,30.3,29.3,00.0,39.4,32.0,11.7,0002.3,0020.62,0011.55,0010.67
2021-09-24 08:16:00,,0829.9,5.00,0.00,30.3,29.3,00.0,39.4,32.0,11.7,0002.3,0020.98,0011.62,0010.72
2021-09-24 08:17:00,,0829.9,5.00,0.00,30.3,29.3,00.0,39.4,32.0,11.7,0002.4,0021.87,0011.72,0010.78
2021-09-24 08:18:00,,0829.8,4.99,0.00,30.3,29.3,00.0,39.4,32.0,11.7,0002.2,0022.62,0011.75,0010.82
2021-09-24 08:19:00,,0829.8,5.01,0.00,30.3,29.3,00.0,39.4,32.0,11.7,0002.0,0022.50,0011.83,0010.88
2021-09-24 08:20:00,,0829.8,5.01,0.00,30.3,28.9,00.0,39.4,31.9,11.7,0001.8,0022.30,0011.84,0010.94
2021-09-24 08:21:00,,0829.7,5.00,0.00,30.2,26.7,00.0,39.4,31.4,11.7,0001.7,0021.61,0011.85,0010.98
2021-09-24 08:22:00,,0829.7,4.99,0.00,30.0,26.1,00.0,39.3,31.2,11.9,0001.8,0021.41,0011.85,0010.99
2021-09-24 08:23:00,,0829.7,5.00,0.00,29.9,26.4,00.0,39.3,31.2,12.0,0002.1,0021.59,0011.88,0011.01
2021-09-24 08:24:00,,0829.7,5.01,0.00,29.8,26.8,00.0,39.2,31.2,12.1,0002.0,0021.09,0011.90,0011.05
2021-09-24 08:25:00,,0829.8,5.00,0.00,29.8,27.2,00.0,39.1,31.2,12.1,0001.9,0020.42,0011.96,0011.11
2021-09-24 08:26:00,,0829.8,5.00,0.00,29.8,27.5,00.0,39.1,31.3,12.1,0002.1,0020.43,0012.02,0011.16
2021-09-24 08:27:00,,0829.8,4.99,0.00,29.8,27.8,00.0,39.1,31.3,12.1,0002.2,0020.44,0012.07,0011.19
2021-09-24 08:28:00,,0829.8,5.00,0.00,29.8,28.0,00.0,39.1,31.3,12.1,0002.3,0019.91,0012.07,0011.21
2021-09-24 08:29:00,,0829.8,5.00,0.00,29.8,28.1,00.0,39.0,31.4,12.1,0002.4,0018.89,0012.12,0011.25
2021-09-24 08:30:00,,0829.8,5.01,0.00,29.8,28.3,00.0,39.0,31.4,12.1,0002.6,0018.56,0012.12,0011.29
2021-09-24 08:31:00,,0829.8,4.99,0.00,29.8,28.4,00.0,39.0,31.4,12.1,0003.0,0018.64,0012.16,0011.33
2021-09-24 08:32:00,,0829.8,5.01,0.00,29.8,28.5,00.0,39.0,31.5,12.1,0003.1,0018.68,0012.19,0011.34
2021-09-24 08:33:00,,0829.8,4.97,0.00,29.8,28.5,00.0,39.0,31.5,12.0,0003.0,0018.92,0012.24,0011.37
2021-09-24 08:34:00,,0829.8,5.00,0.00,29.8,28.5,00.0,39.0,31.5,12.0,0002.9,0019.04,0012.29,0011.42
2021-09-24 08:35:00,,0829.8,5.01,0.00,29.8,28.6,00.0,39.0,31.5,12.0,0003.1,0019.51,0012.34,0011.43
2021-09-24 08:36:00,,0829.8,4.98,0.00,29.8,28.6,00.0,39.0,31.5,12.0,0003.2,0019.24,0012.38,0011.41
2021-09-24 08:37:00,,0829.8,5.01,0.00,29.8,28.6,00.0,39.0,31.5,12.0,0003.1,0019.04,0012.38,0011.42
2021-09-24 08:38:00,,0829.8,5.00,0.00,29.8,28.6,00.0,39.0,31.5,12.0,0003.1,0018.87,0012.37,0011.42
2021-09-24 08:39:00,,0829.8,5.00,0.00,29.9,28.7,00.0,39.0,31.6,11.9,0003.0,0019.32,0012.40,0011.43
2021-09-24 08:40:00,,0829.8,5.00,0.00,29.9,28.7,00.0,39.0,31.6,11.9,0003.1,0020.41,0012.35,0011.40
2021-09-24 08:41:00,,0829.8,5.01,0.00,29.9,28.7,00.0,39.0,31.6,11.9,0003.0,0021.09,0012.32,0011.34
2021-09-24 08:42:00,,0829.7,4.99,0.00,29.9,28.7,00.0,39.0,31.6,11.9,0002.9,0020.95,0012.27,0011.27
2021-09-24 08:43:00,,0829.8,5.00,0.00,29.9,28.7,00.0,39.0,31.6,11.9,0002.8,0020.97,0012.21,0011.23
2021-09-24 08:44:00,,0829.8,5.00,0.00,29.9,28.7,00.0,39.0,31.6,11.9,0002.8,0021.08,0012.16,0011.19
2021-09-24 08:45:00,,0829.8,4.98,0.00,29.9,28.8,00.0,39.0,31.6,11.9,0002.9,0021.61,0012.10,0011.13
2021-09-24 08:46:00,,0829.8,5.02,0.00,29.9,28.8,00.0,39.0,31.6,11.9,0002.8,0021.20,0012.00,0011.07
2021-09-24 08:47:00,,0829.7,4.99,0.00,29.9,28.8,00.0,39.0,31.6,11.9,0002.9,0020.76,0011.93,0011.03
2021-09-24 08:48:00,,0829.8,5.01,0.00,29.9,28.8,00.0,39.0,31.6,11.9,0003.0,0020.73,0011.89,0010.99
2021-09-24 08:49:00,,0829.8,4.99,0.00,29.9,28.8,00.0,39.0,31.6,11.9,0002.9,0021.32,0011.84,0010.97
2021-09-24 08:50:00,,0829.8,5.02,0.00,30.0,28.8,00.0,39.1,31.7,11.9,0002.9,0021.02,0011.82,0010.94
2021-09-24 08:51:00,,0829.8,5.00,0.00,30.0,28.8,00.0,39.1,31.7,11.9,0002.9,0020.06,0011.84,0010.95
2021-09-24 08:52:00,,0829.8,5.01,0.00,30.0,28.8,00.0,39.1,31.7,11.9,0002.7,0019.54,0011.84,0010.97
2021-09-24 08:53:00,,0829.8,4.99,0.00,30.0,28.8,00.0,39.1,31.7,11.9,0002.6,0019.62,0011.85,0010.99
2021-09-24 08:54:00,,0829.9,5.02,0.00,30.0,28.9,00.0,39.1,31.7,11.9,0002.6,0019.58,0011.87,0010.99
2021-09-24 08:55:00,,0829.9,5.00,0.00,30.0,28.9,00.0,39.1,31.7,11.8,0002.7,0019.19,0011.85,0010.96
2021-09-24 08:56:00,,0829.8,5.01,0.00,30.0,28.9,00.0,39.1,31.7,11.9,0002.7,0018.46,0011.91,0010.97
2021-09-24 08:57:00,,0829.8,5.00,0.00,30.0,28.9,00.0,39.1,31.7,11.9,0002.7,0018.33,0011.90,0010.98
2021-09-24 08:58:00,,0829.8,4.99,0.00,30.0,28.9,00.0,39.1,31.7,11.8,0002.7,0019.12,0011.91,0010.98
2021-09-24 08:59:00,,0829.9,4.99,0.00,30.0,28.9,00.0,39.1,31.7,11.8,0002.6,0019.41,0011.91,0010.97
